Retour au catalogue

COSMOS 2251 DEB

ActifLEO
NORAD 33936·DEBRIS·🇷🇺 Russia

Lancé Jun 16, 1993 depuis Plesetsk Cosmodrome

Loading…

Prochains Passages (prochaines 24 heures)

TLE

FraisSource: Space-Track

Époque: Sep 14, 2026, 08:25 UTC

1 33936U 93036ER  26257.35070677  .00002056  00000-0  41576-3 0  9991
2 33936  74.0148 229.9840 0028971 309.5782  50.2826 14.61770392929154

Suivez COSMOS 2251 DEB en temps réel avec AllMySat

Download on the App Store